Location: Recife
(8.0585°S, 34.8848°W)
Time: 08:01:58
(UTC-03:00)

Courier 1B - Pass Details

Date: 14 April 2026
Orbit: 962 x 1209 km, 28.3° (Epoch: 13 May)

Event Time Altitude Azimuth Distance (km) Brightness Sun altitude
Rises 13:56:11 0° 231° (SW) 3,967 10.9 47.2°
Reaches altitude 10° 13:59:16 10° 224° (SW) 2,967 10.4 46.5°
Maximum altitude 14:05:57 39° 157° (SSE) 1,542 8.7 45.0°
Drops below altitude 10° 14:12:14 10° 90° (E) 2,793 9.6 43.6°
Sets 14:15:02 0° 82° (E) 3,710 10.2 42.9°
